Regional Weather Roundup
Issued by NWS

Home | Current Version | Previous Version | Text Only | Print | Product List | Glossary Off
Versions: 1 2 3 4 5 6 7 8 9 10 11 12 13 14 15 16 17 18 19 20 21 22 23 24 25 26 27 28 29 30 31 32 33 34 35 36 37 38 39 40 41 42 43 44 45 46 47 48 49 50

000
ASUS43 KOAX 251402
RWRNE

WEATHER ROUNDUP FOR NEBRASKA
NATIONAL WEATHER SERVICE OMAHA NE
800 AM CST THU DEC 25 2014

NOTES: SATELLITE DATA IS BEING USED TO AUGMENT CLOUD COVER ABOVE
       12000 FEET.
       "FAIR" INDICATES FEW OR NO CLOUDS BELOW 12,000 FEET WITH NO
       SIGNIFICANT WEATHER AND/OR OBSTRUCTIONS TO VISIBILITY.

  * THESE STATIONS DO NOT REPORT WEATHER SUCH AS RAIN...SNOW OR FOG.

NEZ001>004-019>022-054>056-251500-
NEBRASKA PANHANDLE

CITY           SKY/WX    TMP DP  RH WIND       PRES   REMARKS
SCOTTSBLUFF    CLOUDY    33  27  78 NE21      29.44R WCI  21
ALLIANCE       CLOUDY    29  25  85 N16       29.48R WCI  17
CHADRON        CLOUDY    30  27  88 NE8       29.56R WCI  22
KIMBALL        CLOUDY    38  29  70 N8        29.40S WCI  32
SIDNEY         CLOUDY    32  24  72 NE10      29.42S WCI  24
$$

NEZ057>060-069>072-079>082-251500-
SOUTHWEST NEBRASKA

CITY           SKY/WX    TMP DP  RH WIND       PRES   REMARKS
NORTH PLATTE   MOCLDY    26  21  81 E5        29.44F WCI  20
IMPERIAL       MOCLDY    24  19  81 N5        29.43R WCI  18
LEXINGTON      PTCLDY    27  22  82 E7        29.47S WCI  20
MCCOOK         PTCLDY    22  18  85 NE5       29.45R WCI  16
$$

NEZ005>010-023>029-035>040-094-251500-
NORTH CENTRAL NEBRASKA

CITY           SKY/WX    TMP DP  RH WIND       PRES   REMARKS
VALENTINE      CLOUDY    30  23  75 NE16      29.51S WCI  19
AINSWORTH      MOCLDY    28  26  90 N3        29.50R
BROKEN BOW     CLEAR     23  19  85 NE3       29.48S
O`NEILL        PTCLDY    27  26  96 CALM      29.53R
ORD            CLEAR     22  20  92 CALM      29.51R
$$

NEZ041-046>049-061>064-073>077-083>087-251500-
SOUTH CENTRAL NEBRASKA

CITY           SKY/WX    TMP DP  RH WIND       PRES   REMARKS
GRAND ISLAND   PTCLDY    29  22  75 SE7       29.54S WCI  22
AURORA         MOCLDY    30  25  80 S6        29.55S WCI  24
HASTINGS       PTCLDY    28  21  75 SE8       29.52S WCI  20
HEBRON         MOCLDY    32  23  69 SE9       29.58R WCI  24
HOLDREGE       PTCLDY    24  20  84 SE8       29.48F WCI  15
KEARNEY *      PTCLDY    25  19  80 E5        29.52R WCI  19
YORK           MOCLDY    32  25  74 S8        29.57R WCI  25
$$

NEZ011>018-030>034-042>045-251500-
NORTHEAST NEBRASKA

CITY           SKY/WX    TMP DP  RH WIND       PRES   REMARKS
NORFOLK        PTCLDY    28  23  81 SE5       29.57R WCI  23
ALBION         PTCLDY    27  21  80 SE5       29.56R WCI  21
BLAIR          CLOUDY    33  27  79 SE12G17   29.61S WCI  24
COLUMBUS *     MOCLDY    30  21  69 S7        29.60R WCI  23
FREMONT        CLOUDY    33  28  80 SE3       29.62R
TEKAMAH        CLOUDY    32  28  85 SE7       29.63R WCI  26
WAYNE          PTCLDY    30  26  84 S7        29.58S WCI  23
$$

NEZ050>053-065>068-078-088>093-251500-
SOUTHEAST NEBRASKA

CITY           SKY/WX    TMP DP  RH WIND       PRES   REMARKS
LINCOLN        MOCLDY    31  24  75 S7        29.63R WCI  24
OMAHA EPPLEY   CLOUDY    32  27  81 S13       29.66R WCI  22
BEATRICE       MOCLDY    32  25  75 S14       29.61S WCI  22
FALLS CITY     MOCLDY    34  26  72 S15G22    29.69S WCI  24
NEBRASKA CITY  PTCLDY    32  25  76 S15       29.66S WCI  22
$$

NEZ044-045-051>053-067-251500-
OMAHA AREA

CITY           SKY/WX    TMP DP  RH WIND       PRES   REMARKS
OMAHA EPPLEY   CLOUDY    32  27  81 S13       29.66R WCI  22
BLAIR          CLOUDY    33  27  79 SE12G17   29.61S WCI  24
FREMONT        CLOUDY    33  28  80 SE3       29.62R
OFFUTT AFB     MOCLDY    31  27  83 S7        29.64R WCI  25
WAHOO          FAIR      30  26  84 CALM      29.62R
$$



USA.gov is the U.S. government's official web portal to all federal, state and local government web resources and services.